Weather History for Homer, AK

Change the Weather History Date:

Monday, February 11, 2013

  Actual Average Record
Temperature  
Mean Temperature 26 °F -  
Max Temperature 30 °F 32 °F 47 °F (1986)
Min Temperature 24 °F 19 °F -12 °F (1956)
Degree Days  
Heating Degree Days 39    
Moisture  
Dew Point 15 °F    
Average Humidity 61    
Maximum Humidity 72    
Minimum Humidity 51    
Precipitation  
Precipitation 0.00 in - - ()
Sea Level Pressure  
Sea Level Pressure 29.68 in    
Wind  
Wind Speed 13 mph (SW)    
Max Wind Speed 21 mph    
Max Gust Speed 30 mph    
Visibility 10 miles    
Events      
Averages and records for this station are not official NWS values.
T = Trace of Precipitation, MM = Missing Value Source: NWS Daily Summary

Daily Weather History Graph

Daily Weather History Graph

Search for Another Location

Airport:

Trip Planner

Search our weather history database for the weather conditions in past years. The results will help you decide how hot, cold, wet, or windy it might be!

Date:

Astronomy

Feb. 11, 2013 Rise Set
Actual Time 8:51 AM AKST 5:49 PM AKST
Civil Twilight 8:07 AM AKST 6:33 PM AKST
Nautical Twilight 7:19 AM AKST 7:22 PM AKST
Astronomical Twilight 6:31 AM AKST 8:09 PM AKST
Moon 8:43 AM AKST (2/11) 8:43 PM AKST (2/11)
Length of Visible Light 10h 25m
Length of Day
8h 57m
Waxing Crescent, 3% of the Moon is Illuminated
Feb 11
Waxing Crescent
Feb 17
First Quarter
Feb 25
Full
Mar 4
Last Quarter
Mar 11
New

Hourly Weather History & Observations

Time (AKST) Temp. Windchill Dew Point Humidity Pressure Visibility Wind Dir Wind Speed Gust Speed Precip Events Conditions
12:53 AM 28.9 °F 16.9 °F 17.1 °F 61% 29.60 in 10.0 mi WSW 17.3 mph 24.2 mph N/A   Overcast
1:53 AM 28.0 °F 16.5 °F 18.0 °F 66% 29.62 in 10.0 mi SW 15.0 mph - N/A   Overcast
2:04 AM 28.4 °F 16.6 °F 17.6 °F 64% 29.61 in 10.0 mi WSW 16.1 mph 23.0 mph N/A   Overcast
2:12 AM 26.6 °F 14.3 °F 15.8 °F 64% 29.61 in 10.0 mi WSW 16.1 mph 24.2 mph N/A   Overcast
3:53 AM 25.0 °F 11.7 °F 12.9 °F 60% 29.64 in 10.0 mi WSW 17.3 mph 25.3 mph N/A   Partly Cloudy
4:43 AM 24.8 °F 12.4 °F 14.0 °F 64% 29.64 in 10.0 mi WSW 15.0 mph 26.5 mph N/A   Mostly Cloudy
4:53 AM 25.0 °F 11.7 °F 12.0 °F 58% 29.65 in 10.0 mi WSW 17.3 mph 27.6 mph N/A   Scattered Clouds
5:53 AM 25.0 °F 10.6 °F 12.9 °F 60% 29.67 in 10.0 mi SW 20.7 mph 29.9 mph N/A   Scattered Clouds
6:53 AM 25.0 °F 11.7 °F 12.9 °F 60% 29.68 in 10.0 mi WSW 17.3 mph 25.3 mph N/A   Scattered Clouds
7:53 AM 26.1 °F 12.7 °F 12.9 °F 58% 29.68 in 10.0 mi WSW 18.4 mph 25.3 mph N/A   Clear
8:53 AM 26.1 °F 13.1 °F 12.9 °F 58% 29.70 in 10.0 mi WSW 17.3 mph 24.2 mph N/A   Partly Cloudy
9:53 AM 26.1 °F 15.6 °F 12.9 °F 58% 29.71 in 10.0 mi SW 11.5 mph - N/A   Clear
10:53 AM 27.0 °F 18.0 °F 15.1 °F 61% 29.72 in 10.0 mi South 9.2 mph - N/A   Scattered Clouds
11:53 AM 27.0 °F 19.5 °F 15.1 °F 61% 29.73 in 10.0 mi SE 6.9 mph - N/A   Clear
12:53 PM 28.0 °F 22.8 °F 14.0 °F 56% 29.73 in 10.0 mi South 4.6 mph - N/A   Clear
1:53 PM 28.0 °F - 14.0 °F 56% 29.73 in 10.0 mi Calm Calm - N/A   Scattered Clouds
2:53 PM 28.9 °F - 12.9 °F 51% 29.73 in 10.0 mi Calm Calm - N/A   Scattered Clouds
3:53 PM 28.0 °F 22.8 °F 15.1 °F 58% 29.71 in 10.0 mi NE 4.6 mph - N/A   Mostly Cloudy
4:53 PM 28.0 °F 20.8 °F 17.1 °F 63% 29.71 in 10.0 mi ENE 6.9 mph - N/A   Mostly Cloudy
5:53 PM 28.0 °F 22.8 °F 17.1 °F 63% 29.71 in 10.0 mi NE 4.6 mph - N/A   Overcast
6:53 PM 28.9 °F 22.8 °F 17.1 °F 61% 29.70 in 10.0 mi NNE 5.8 mph - N/A   Overcast
7:53 PM 28.9 °F 21.9 °F 17.1 °F 61% 29.70 in 10.0 mi ENE 6.9 mph - N/A   Overcast
8:53 PM 28.0 °F 22.8 °F 16.0 °F 61% 29.69 in 10.0 mi NNE 4.6 mph - N/A   Overcast
9:53 PM 28.9 °F 22.8 °F 17.1 °F 61% 29.69 in 10.0 mi NNE 5.8 mph - N/A   Overcast
10:53 PM 28.9 °F 22.8 °F 19.9 °F 69% 29.69 in 10.0 mi ENE 5.8 mph - N/A   Overcast
11:53 PM 30.0 °F 25.2 °F 21.9 °F 72% 29.69 in 10.0 mi ENE 4.6 mph - N/A   Overcast